Simultaneous Nadir Overpasses (SNOs) Predictions

Prediction of SNOs between AQUA and NOAA-19 Satellite Orbit:

Table of predicted SNOs for the next 14.0 days since TLE Epoch: 6/24/2023
Index Date (AQUA) Time (AQUA) Lat,Lon (AQUA) SZA (AQUA ) Date (NOAA-19) Time (NOAA-19) Lat,Lon (NOAA-19) SZA (NOAA-19 ) Distance(km) Time Diff (sec)
1 06/24/2023 04:16:25 -76.22, -72.80 127.08 06/24/2023 04:15:15 -76.12, -74.51 127.07 46.56 70
2 06/24/2023 05:05:56 76.48, 93.96 53.23 06/24/2023 05:06:11 76.44, 93.95 53.19 4.10 15
3 06/26/2023 09:48:00 76.41, 23.69 53.21 06/26/2023 09:47:41 76.41, 23.52 53.23 4.32 19
4 06/26/2023 10:37:25 -76.48,-168.90 126.71 06/26/2023 10:38:35 -76.48,-168.95 126.73 1.63 70
5 06/28/2023 14:30:05 76.43, -46.86 53.32 06/28/2023 14:29:10 76.42, -46.77 53.32 2.86 55
6 06/28/2023 15:19:29 -76.45, 120.73 126.66 06/28/2023 15:20:04 -76.47, 120.72 126.64 2.59 35
7 06/30/2023 20:01:33 -76.45, 50.24 126.53 06/30/2023 20:01:34 -76.42, 50.20 126.56 3.48 1
8 07/03/2023 00:43:36 -76.43, -20.19 126.39 07/03/2023 00:43:03 -76.40, -20.17 126.42 3.63 33
9 07/03/2023 01:33:02 76.47, 147.31 53.66 07/03/2023 01:34:05 76.48, 147.39 53.66 2.44 63
10 07/05/2023 05:25:37 -76.40, -90.58 126.24 07/05/2023 05:24:31 -76.37, -90.58 126.25 3.04 66
11 07/05/2023 06:15:03 76.45, 76.91 53.82 07/05/2023 06:15:33 76.46, 76.99 53.83 2.43 30
12 07/07/2023 10:57:04 76.41, 6.56 54.00 07/07/2023 10:57:02 76.42, 6.55 54.02 1.93 2



Historial Predications of SNOs between AQUA and NOAA-19
